星链-31002 (STARLINK-31002 )

导读

STARLINK-31002是美国太空探索技术公司SpaceX星链星座的一员,由美国于2023年12月3日发射入轨,属于星链互联网卫星系列。该卫星承担着为全球提供低延迟、高速宽带互联网服务的任务,补充完善了星链星座的全球覆盖能力,推进了星链星座组网建设进程。

基本信息
目录编号:
58495
目录名称:
STARLINK-31002
国际标识:
2023-186Y
轨道中心:
EARTH
卫星名称:
星链-31002
卫星全名:
星链-31002 (STARLINK-31002 )
卫星状态:
在轨 (已飞行928 天)
发射日期:
2023-12-03 UTC
国别 :
美国 (US)
星等 :
--
轨道信息
数据来源 国际轨道数据 AOE轨道数据
星历时间 2026-06-17T05:11:08+0800
1天前
查看轨道信息
2026-06-17T08:00:00+0800
1天前
查看轨道信息
半长轴 6861.212km 6861.207km
偏心率 0.000189 0.0001347
轨道倾角 43.005° 43.002°
近地点辐角 261.943° 274.154°
升交点赤经 223.700° 223.038°
平近点角 98.121° 11.535°
近地点 481.778km 482.145km
远地点 484.372km 483.995km
周期 94.267分钟 94.267分钟
每日圈数 15.275715 15.275731
详细信息
固有亮度:
5
最大亮度:
0.3
卫星平台:
Starlink v2.0 mini
覆盖范围:
全球
运营商:
太空探索技术公司
运营商所在国:
美国
制造商(研发单位):
太空探索技术公司
制造商所在国:
美国
使用方式:
暂无
卫星简介
星链(Starlink)计划是由太空探索技术公司(SpaceX)提出的一个巨型低轨卫星互联网星座项目,计划在2019年至2024年间在太空搭建由约1.2万颗卫星组成的“星链”网络,其中1584颗将部署在地球上空550千米处的近地轨道,并从2020年开始工作。该卫星仍在工作。
2D轨道图
3D轨道图
轨道高度分析图
轨道倾角分析图
轨道综合分析图
查看轨道综合分析图